Regional Weather Roundup
Issued by NWS

Home | Current Version | Previous Version | Graphics & Text | Print | Product List | Glossary On
Versions: 1 2 3 4 5 6 7 8 9 10 11 12 13 14 15 16 17 18 19 20 21 22 23 24 25 26 27 28 29 30 31 32 33 34 35 36 37 38 39 40 41 42 43 44 45 46 47 48 49 50
000
ASUS44 KMEG 311910
RWRTN
TENNESSEE HOURLY STATE WEATHER ROUNDUP
NATIONAL WEATHER SERVICE MEMPHIS TN
200 PM CDT FRI JUL 31 2015

TNZ002-004-019-021-049-052-054-088>092-312000-
WEST TENNESSEE

CITY           SKY/WX    TMP DP  RH WIND       PRES   REMARKS
MEMPHIS INTL   MOSUNNY   93  64  38 NE7G18    30.07F HX  94
NWS MEMPHIS      N/A     89 N/A N/A MISG        N/A
JACKSON        MOSUNNY   93  63  36 N14       30.06F HX  94
DYERSBURG        N/A    N/A N/A N/A MISG        N/A
PARIS          SUNNY     84  66  54 N9        30.08F
LEXINGTON      SUNNY     88  63  42 N10       30.06S
$$

TNZ008-025-027-028-033-062-065-066-312000-
NORTH MIDDLE TENNESSEE

CITY           SKY/WX    TMP DP  RH WIND       PRES   REMARKS
NASHVILLE      MOSUNNY   90  59  35 N13       30.06F
CLARKSVILLE    SUNNY     88  65  46 N7        30.06F HX  90
SMYRNA         MOSUNNY   93  60  33 N9        30.06F HX  92
CROSSVILLE     SUNNY     82  54  37 N10       30.11F
$$

TNZ061-075-076-078-094-096-097-312000-
SOUTH MIDDLE TENNESSEE

CITY           SKY/WX    TMP DP  RH WIND       PRES   REMARKS
FAYETTEVILLE   SUNNY     86  54  32 N12       30.05F
TULLAHOMA      SUNNY     84  55  37 NE12      30.08F
WINCHESTER     SUNNY     86  61  42 NE13      30.06F
MCMINNVILLE    SUNNY     84  63  48 N9        30.07F
COLUMBIA       SUNNY     90  64  43 NE12      30.05F HX  91
SHELBYVILLE    SUNNY     90  63  40 NE13      30.07F HX  90
$$

TNZ017-018-042-046-047-312000-
NORTHEAST TENNESSEE

CITY           SKY/WX    TMP DP  RH WIND       PRES   REMARKS
TRI CITIES     MOSUNNY   84  54  35 VRB3      30.07F
ELIZABETHTON   CLEAR     82  57  42 CALM      30.06F
$$

TNZ012-013-036-069-073-074-312000-
CENTRAL EAST TENNESSEE

CITY           SKY/WX    TMP DP  RH WIND       PRES   REMARKS
KNOXVILLE      MOSUNNY   85  58  39 N6        30.04F
OAK RIDGE      SUNNY     86  57  37 VRB3      30.06F
GATLINBURG     CLEAR     84  57  39 VRB3      30.04F
MORRISTOWN     CLEAR     82  55  39 N5        30.07F
$$

TNZ083-085-099-312000-
SOUTHEAST TENNESSEE

CITY           SKY/WX    TMP DP  RH WIND       PRES   REMARKS
CHATTANOOGA    MOSUNNY   87  58  37 NE14      30.03F
$$

SKY/WX REPORTED AS FAIR MEANS FEW OR NO CLOUDS BELOW
12 THOUSAND FEET.




USA.gov is the U.S. government's official web portal to all federal, state and local government web resources and services.